EN

Hourly Weather Dziewin

Today, 20 October, Tuesday

Time Temperature Precipitation Wind Pressure Humidity
00:00 +7°C° 0 mm 2 mps 758 mmHg 85%
01:00 +6°C° 0 mm 2 mps 758 mmHg 84%
02:00 +6°C° 0 mm 2 mps 757 mmHg 84%
03:00 +6°C° 0 mm 2 mps 757 mmHg 83%
04:00 +5°C° 0 mm 3 mps 757 mmHg 83%
05:00 +5°C° 0 mm 3 mps 757 mmHg 82%
06:00 +5°C° 0 mm 3 mps 756 mmHg 81%
07:00 +5°C° 0 mm 3 mps 756 mmHg 82%
08:00 +6°C° 0 mm 4 mps 756 mmHg 77%
09:00 +8°C° 0 mm 5 mps 755 mmHg 71%
10:00 +10°C° 0 mm 6 mps 755 mmHg 66%
11:00 +11°C° 0 mm 6 mps 755 mmHg 63%
12:00 +13°C° 0 mm 6 mps 754 mmHg 61%
13:00 +14°C° 0 mm 6 mps 754 mmHg 59%
14:00 +13°C° 0 mm 6 mps 753 mmHg 61%
15:00 +13°C° 0 mm 5 mps 753 mmHg 64%
16:00 +12°C° 0 mm 4 mps 752 mmHg 67%
17:00 +12°C° 0 mm 4 mps 752 mmHg 68%
18:00 +10°C° 0 mm 5 mps 752 mmHg 70%
19:00 +9°C° 0 mm 5 mps 752 mmHg 71%
20:00 +9°C° 0 mm 5 mps 752 mmHg 71%
21:00 +9°C° 0 mm 5 mps 752 mmHg 70%
22:00 +11°C° 0 mm 4 mps 752 mmHg 70%
23:00 +11°C° 0 mm 4 mps 752 mmHg 70%

Tomorrow, 21 October, Wednesday

Time Temperature Precipitation Wind Pressure Humidity
00:00 +11°C° 0 mm 4 mps 752 mmHg 70%
01:00 +11°C° 0 mm 4 mps 752 mmHg 70%
02:00 +11°C° 0 mm 4 mps 752 mmHg 69%
03:00 +11°C° 0 mm 4 mps 751 mmHg 69%
04:00 +11°C° 0 mm 3 mps 751 mmHg 69%
05:00 +10°C° 0 mm 3 mps 751 mmHg 69%
06:00 +10°C° 0 mm 3 mps 751 mmHg 70%
07:00 +10°C° 0 mm 3 mps 751 mmHg 70%
08:00 +11°C° 0 mm 3 mps 751 mmHg 69%
09:00 +11°C° 0 mm 3 mps 751 mmHg 69%
10:00 +11°C° 0 mm 3 mps 751 mmHg 68%
11:00 +13°C° 0 mm 3 mps 751 mmHg 64%
12:00 +14°C° 0 mm 3 mps 751 mmHg 60%
13:00 +17°C° 0 mm 3 mps 750 mmHg 56%
14:00 +16°C° 0 mm 3 mps 750 mmHg 59%
15:00 +16°C° 0 mm 3 mps 750 mmHg 62%
16:00 +16°C° 0 mm 3 mps 750 mmHg 65%
17:00 +14°C° 0 mm 3 mps 750 mmHg 66%
18:00 +13°C° 0 mm 3 mps 750 mmHg 68%
19:00 +12°C° 0 mm 3 mps 751 mmHg 69%
20:00 +12°C° 0 mm 3 mps 751 mmHg 68%
21:00 +12°C° 0 mm 3 mps 751 mmHg 67%
22:00 +12°C° 0 mm 4 mps 751 mmHg 66%
23:00 +12°C° 0 mm 4 mps 751 mmHg 67%

Day after tomorrow, 22 October, Thursday

Time Temperature Precipitation Wind Pressure Humidity
00:00 +12°C° 0 mm 4 mps 752 mmHg 67%
01:00 +13°C° 0 mm 4 mps 752 mmHg 67%
02:00 +13°C° 0 mm 4 mps 752 mmHg 67%
03:00 +13°C° 0 mm 3 mps 752 mmHg 67%
04:00 +13°C° 0 mm 3 mps 752 mmHg 68%
05:00 +13°C° 0 mm 3 mps 752 mmHg 68%
06:00 +13°C° 0 mm 3 mps 752 mmHg 68%
07:00 +12°C° 0 mm 3 mps 752 mmHg 68%
08:00 +14°C° 0 mm 3 mps 752 mmHg 66%
09:00 +17°C° 0 mm 3 mps 752 mmHg 63%
10:00 +18°C° 0 mm 3 mps 752 mmHg 60%
11:00 +19°C° 0 mm 3 mps 752 mmHg 58%
12:00 +20°C° 0 mm 3 mps 752 mmHg 57%
13:00 +21°C° 0 mm 3 mps 752 mmHg 55%
14:00 +20°C° 0 mm 3 mps 752 mmHg 59%
15:00 +19°C° 0 mm 3 mps 752 mmHg 63%
16:00 +18°C° 0 mm 3 mps 752 mmHg 66%
17:00 +17°C° 0 mm 3 mps 752 mmHg 66%
18:00 +17°C° 0 mm 3 mps 752 mmHg 66%
19:00 +16°C° 0 mm 3 mps 752 mmHg 67%
20:00 +16°C° 0 mm 3 mps 752 mmHg 67%
21:00 +16°C° 0 mm 3 mps 752 mmHg 68%
22:00 +14°C° 0 mm 3 mps 752 mmHg 69%
23:00 +14°C° 0 mm 3 mps 752 mmHg 69%

23 October, Friday

Time Temperature Precipitation Wind Pressure Humidity
00:00 +14°C° 0 mm 3 mps 751 mmHg 69%
01:00 +14°C° 0 mm 3 mps 751 mmHg 69%
02:00 +14°C° 0 mm 3 mps 751 mmHg 69%
03:00 +14°C° 0 mm 3 mps 751 mmHg 70%
04:00 +14°C° 0 mm 3 mps 751 mmHg 70%
05:00 +14°C° 0 mm 3 mps 751 mmHg 72%
06:00 +14°C° 0 mm 3 mps 750 mmHg 74%
07:00 +14°C° 0 mm 3 mps 750 mmHg 75%
08:00 +15°C° 0 mm 4 mps 751 mmHg 74%
09:00 +15°C° 0 mm 5 mps 751 mmHg 73%
10:00 +16°C° 0 mm 5 mps 751 mmHg 72%
11:00 +17°C° 0 mm 5 mps 751 mmHg 71%
12:00 +18°C° 0 mm 4 mps 751 mmHg 70%
13:00 +18°C° 0 mm 4 mps 750 mmHg 69%
14:00 +18°C° 0 mm 3 mps 750 mmHg 72%
15:00 +17°C° 0 mm 3 mps 750 mmHg 74%
16:00 +17°C° 0 mm 2 mps 750 mmHg 77%
17:00 +16°C° 0 mm 2 mps 750 mmHg 78%
18:00 +16°C° 0 mm 2 mps 750 mmHg 80%
19:00 +15°C° 0 mm 2 mps 750 mmHg 82%
20:00 +15°C° 0.2 mm 2 mps 750 mmHg 83%
21:00 +15°C° 0.2 mm 2 mps 750 mmHg 84%
22:00 +15°C° 0.2 mm 2 mps 750 mmHg 86%
23:00 +15°C° 0.7 mm 2 mps 750 mmHg 88%

24 October, Saturday

Time Temperature Precipitation Wind Pressure Humidity
00:00 +13°C° 0.7 mm 3 mps 749 mmHg 90%
01:00 +13°C° 0.7 mm 3 mps 749 mmHg 92%
02:00 +14°C° 0.5 mm 2 mps 749 mmHg 92%
03:00 +14°C° 0.5 mm 2 mps 749 mmHg 92%
04:00 +13°C° 0.5 mm 1 mps 750 mmHg 92%
05:00 +13°C° 0.2 mm 2 mps 750 mmHg 91%
06:00 +12°C° 0.2 mm 4 mps 750 mmHg 90%
07:00 +10°C° 0.2 mm 5 mps 751 mmHg 89%
08:00 +11°C° 0.1 mm 6 mps 751 mmHg 84%
09:00 +12°C° 0.1 mm 7 mps 751 mmHg 78%
10:00 +12°C° 0.1 mm 8 mps 751 mmHg 73%
11:00 +13°C° 0.1 mm 8 mps 752 mmHg 72%
12:00 +13°C° 0.1 mm 8 mps 752 mmHg 70%
13:00 +13°C° 0.1 mm 8 mps 752 mmHg 68%
14:00 +12°C° 0.1 mm 7 mps 752 mmHg 69%
15:00 +13°C° 0.1 mm 6 mps 752 mmHg 69%
16:00 +12°C° 0.1 mm 5 mps 753 mmHg 70%
17:00 +11°C° 0 mm 4 mps 753 mmHg 73%
18:00 +10°C° 0 mm 3 mps 754 mmHg 76%
19:00 +9°C° 0 mm 2 mps 754 mmHg 79%
20:00 +9°C° 0 mm 2 mps 755 mmHg 80%
21:00 +8°C° 0 mm 2 mps 755 mmHg 82%
22:00 +8°C° 0 mm 2 mps 755 mmHg 83%
23:00 +8°C° 0 mm 2 mps 755 mmHg 84%

25 October, Sunday

Time Temperature Precipitation Wind Pressure Humidity
00:00 +8°C° 0 mm 2 mps 755 mmHg 85%
01:00 +8°C° 0 mm 2 mps 755 mmHg 85%
02:00 +8°C° 0 mm 1 mps 755 mmHg 86%
03:00 +8°C° 0 mm 1 mps 755 mmHg 87%
04:00 +8°C° 0 mm 1 mps 755 mmHg 88%
05:00 +8°C° 0 mm 1 mps 755 mmHg 89%
06:00 +8°C° 0 mm 1 mps 755 mmHg 89%
07:00 +7°C° 0 mm 2 mps 754 mmHg 89%
08:00 +9°C° 0 mm 2 mps 754 mmHg 83%
09:00 +10°C° 0 mm 2 mps 754 mmHg 77%
10:00 +13°C° 0 mm 2 mps 754 mmHg 71%
11:00 +14°C° 0 mm 2 mps 754 mmHg 68%
12:00 +14°C° 0 mm 3 mps 754 mmHg 65%
13:00 +16°C° 0 mm 3 mps 754 mmHg 62%
14:00 +14°C° 0 mm 3 mps 753 mmHg 66%
15:00 +14°C° 0 mm 3 mps 753 mmHg 69%
16:00 +13°C° 0 mm 3 mps 752 mmHg 72%
17:00 +12°C° 0 mm 3 mps 752 mmHg 75%
18:00 +11°C° 0 mm 3 mps 752 mmHg 78%
19:00 +10°C° 0 mm 3 mps 752 mmHg 80%
20:00 +10°C° 0 mm 3 mps 752 mmHg 81%
21:00 +10°C° 0 mm 3 mps 752 mmHg 82%
22:00 +9°C° 0 mm 3 mps 752 mmHg 83%
23:00 +9°C° 0 mm 3 mps 752 mmHg 84%

26 October, Monday

Time Temperature Precipitation Wind Pressure Humidity
00:00 +9°C° 0 mm 3 mps 751 mmHg 85%
01:00 +8°C° 0 mm 3 mps 751 mmHg 86%
02:00 +8°C° 0 mm 3 mps 751 mmHg 87%
03:00 +8°C° 0 mm 3 mps 750 mmHg 87%
04:00 +8°C° 0 mm 3 mps 750 mmHg 88%
05:00 +8°C° 0 mm 3 mps 750 mmHg 88%
06:00 +8°C° 0 mm 3 mps 750 mmHg 88%
07:00 +7°C° 0 mm 3 mps 750 mmHg 88%
08:00 +9°C° 0 mm 3 mps 749 mmHg 83%
09:00 +10°C° 0 mm 3 mps 749 mmHg 78%
10:00 +12°C° 0 mm 3 mps 749 mmHg 73%
11:00 +12°C° 0 mm 3 mps 749 mmHg 71%
12:00 +13°C° 0 mm 3 mps 749 mmHg 68%
13:00 +14°C° 0 mm 3 mps 749 mmHg 66%
14:00 +13°C° 0 mm 3 mps 748 mmHg 70%
15:00 +14°C° 0 mm 2 mps 748 mmHg 73%
16:00 +13°C° 0 mm 2 mps 748 mmHg 77%
17:00 +13°C° 0.2 mm 2 mps 748 mmHg 80%
18:00 +12°C° 0.2 mm 2 mps 748 mmHg 84%
19:00 +11°C° 0.2 mm 3 mps 749 mmHg 88%
20:00 +11°C° 0 mm 3 mps 749 mmHg 88%
21:00 +12°C° 0 mm 2 mps 749 mmHg 88%
22:00 +12°C° 0 mm 2 mps 749 mmHg 87%
23:00 +10°C° 0 mm 2 mps 749 mmHg 87%
Show more